Notices

What's New in latest Release from April 7th, 2021:

- Updated Glossary, including Speed of Maximum Gust, and Total Hourly Precipitation

- Updated national and regional climate services offices contacts and prices information

- Addition of station inventory lists for 1981-2010, 1971-2000, and 1961-1990 Normals.

If you haven't already, please take our survey and provide feedback about our website: https://eccc.sondage-survey.ca/f/LanguageSelection.aspx?s=442ca660-fcf1-47c0-95a9-59707d6fd709

Hourly Data Report for September 29, 2017

TORONTO CITY
ONTARIO

43°40'00.000" N
79°24'00.000" W
112.50 m
6158355
71508
XTO

Download Data

Hourly Data (September 2017)
Hourly Data Report for September 29, 2017
TIME
LST
Temp Definition
°C
Dew Point Definition
°C
Rel Hum Definition
%
Precip. Amount Definition
mm

Wind Dir Definition
10's deg

Wind Spd Definition
km/h
Visibility Definition
km
Stn Press Definition
kPa
Hmdx Definition


Wind Chill Definition


Weather Definition


00:00 10.8 4.7 66 0.0 LegendMM LegendMM   100.52     LegendNANA
01:00 11.0 4.1 62 0.0 LegendMM LegendMM   100.53     LegendNANA
02:00 10.7 3.5 61 0.0 LegendMM LegendMM   100.52     LegendNANA
03:00 10.6 2.4 57 0.0 LegendMM LegendMM   100.46     LegendNANA
04:00 10.4 2.4 58 0.0 LegendMM LegendMM   100.44     LegendNANA
05:00 10.2 3.1 61 0.0 LegendMM LegendMM   100.44     LegendNANA
06:00 11.3 2.3 54 0.0 LegendMM LegendMM   100.39     LegendNANA
07:00 12.0 5.1 63 0.0 LegendMM LegendMM   100.39     LegendNANA
08:00 13.3 6.0 61 0.0 LegendMM LegendMM   100.36     LegendNANA
09:00 13.8 8.6 71 0.0 LegendMM LegendMM   100.32     LegendNANA
10:00 14.2 8.4 68 0.0 LegendMM LegendMM   100.21     LegendNANA
11:00 12.9 10.7 86 1.1 LegendMM LegendMM   100.13     LegendNANA
12:00 15.3 11.6 79 1.2 LegendMM LegendMM   100.04     LegendNANA
13:00 17.6 11.5 68 0.0 LegendMM LegendMM   99.90     LegendNANA
14:00 17.0 9.9 63 0.0 LegendMM LegendMM   99.86     LegendNANA
15:00 17.5 7.9 53 0.0 LegendMM LegendMM   99.83     LegendNANA
16:00 15.6 6.2 53 0.0 LegendMM LegendMM   99.90     LegendNANA
17:00 14.2 5.5 56 0.0 LegendMM LegendMM   99.93     LegendNANA
18:00 12.8 6.6 66 0.0 LegendMM LegendMM   99.83     LegendNANA
19:00 11.6 8.2 80 0.0 LegendMM LegendMM   100.00     LegendNANA
20:00 11.2 7.2 76 0.0 LegendMM LegendMM   100.26     LegendNANA
21:00 10.2 6.9 80 0.0 LegendMM LegendMM   100.49     LegendNANA
22:00 10.5 6.8 78 0.0 LegendMM LegendMM   100.64     LegendNANA
23:00 9.9 5.6 74 0.0 LegendMM LegendMM   100.76     LegendNANA

Notes on Data Quality.

Legend

  • E = Estimated
  • M = Missing
  • NA = Not Available*
  • [empty] = Indicates an unobserved value
Date modified: